| time (UTC) | temp F | wind direction | speed knots | gust knots | rain 1hr in | rain 24hr in | rain mn in | humidity % | barometer mb |
| 20260503015644 | 65 | 88 | 2.6 | 5.2 | 0.00 | 0.12 | 0.05 | 47 | 1020.4 |
| 20260503013647 | 66 | 75 | 0.9 | 6.1 | 0.00 | 0.12 | 0.05 | 44 | 1020.2 |
| 20260503012644 | 66 | 57 | 3.5 | 7.8 | 0.00 | 0.12 | 0.05 | 42 | 1020.0 |
| 20260503011635 | 67 | 76 | 3.5 | 7.0 | 0.00 | 0.12 | 0.05 | 41 | 1019.9 |
| 20260503010628 | 68 | 11 | 2.6 | 5.2 | 0.00 | 0.12 | 0.05 | 40 | 1019.8 |
| 20260503005647 | 69 | 88 | 0.0 | 2.6 | 0.00 | 0.12 | 0.05 | 39 | 1019.8 |
| 20260503003638 | 69 | 42 | 2.6 | 7.0 | 0.00 | 0.12 | 0.05 | 38 | 1019.9 |
| 20260503001643 | 70 | 11 | 0.9 | 5.2 | 0.00 | 0.12 | 0.05 | 39 | 1019.8 |
| 20260503000638 | 70 | 344 | 2.6 | 4.3 | 0.00 | 0.12 | 0.05 | 39 | 1019.7 |
| 20260502235631 | 70 | 319 | 0.9 | 2.6 | 0.00 | 0.12 | 0.05 | 39 | 1019.8 |
| 20260502163733 | 56 | 183 | 0.9 | 2.6 | 0.00 | 0.12 | 0.05 | 76 | 1023.8 |
| 20260502162724 | 54 | 246 | 0.9 | 5.2 | 0.00 | 0.12 | 0.05 | 78 | 1023.8 |
| 20260502160734 | 52 | 271 | 0.9 | 3.5 | 0.00 | 0.12 | 0.05 | 82 | 1024.0 |
| 20260502151722 | 52 | 226 | 3.5 | 7.8 | 0.00 | 0.12 | 0.05 | 86 | 1023.4 |
| 20260502130729 | 49 | 220 | 0.0 | 1.7 | 0.00 | 0.17 | 0.05 | 89 | 1022.1 |
| 20260502123714 | 49 | 284 | 0.9 | 5.2 | 0.00 | 0.19 | 0.05 | 90 | 1021.6 |
| 20260502122710 | 49 | 285 | 1.7 | 7.0 | 0.00 | 0.19 | 0.05 | 90 | 1022.4 |
| 20260502121721 | 50 | 332 | 1.7 | 4.3 | 0.00 | 0.19 | 0.05 | 91 | 1022.2 |
| 20260502120720 | 50 | 284 | 1.7 | 2.6 | 0.00 | 0.19 | 0.05 | 91 | 1022.1 |
| 20260502115711 | 50 | 273 | 1.7 | 2.6 | 0.00 | 0.19 | 0.05 | 91 | 1021.9 |
| 20260502114726 | 50 | 62 | 0.0 | 0.9 | 0.01 | 0.19 | 0.05 | 90 | 1021.7 |
| 20260502113725 | 50 | 62 | 0.9 | 1.7 | 0.02 | 0.19 | 0.05 | 90 | 1021.8 |
| 20260502112717 | 50 | 73 | 0.0 | 1.7 | 0.02 | 0.19 | 0.05 | 90 | 1021.9 |
| 20260502111727 | 50 | 70 | 0.0 | 1.7 | 0.03 | 0.19 | 0.05 | 90 | 1021.9 |
| 20260502110726 | 50 | 96 | 0.9 | 1.7 | 0.03 | 0.19 | 0.05 | 89 | 1021.8 |
| 20260502105724 | 50 | 138 | 0.0 | 2.6 | 0.04 | 0.30 | 0.05 | 89 | 1022.0 |
| 20260502104714 | 50 | 204 | 0.0 | 1.7 | 0.03 | 0.29 | 0.04 | 88 | 1022.0 |
| 20260502103725 | 50 | 241 | 0.9 | 4.3 | 0.03 | 0.28 | 0.03 | 87 | 1022.1 |
| 20260502102716 | 51 | 238 | 1.7 | 3.5 | 0.03 | 0.28 | 0.03 | 87 | 1022.1 |
| 20260502101710 | 51 | 243 | 2.6 | 5.2 | 0.02 | 0.27 | 0.02 | 85 | 1022.1 |
| 20260502100725 | 52 | 267 | 2.6 | 7.0 | 0.02 | 0.27 | 0.02 | 86 | 1022.0 |
| 20260502070716 | 53 | 256 | 0.0 | 3.5 | 0.00 | 0.38 | 0.00 | 81 | 1020.9 |
| 20260502064715 | 53 | 323 | 0.9 | 2.6 | 0.00 | 0.38 | 0.00 | 82 | 1020.6 |
| 20260502063711 | 53 | 360 | 1.7 | 2.6 | 0.00 | 0.38 | 0.00 | 83 | 1020.3 |
| 20260502061724 | 53 | 173 | 0.0 | 3.5 | 0.00 | 0.38 | 0.00 | 84 | 1020.0 |
| 20260502060722 | 53 | 178 | 0.9 | 3.5 | 0.00 | 0.38 | 0.00 | 84 | 1019.8 |
| 20260502054707 | 54 | 211 | 1.7 | 6.1 | 0.00 | 0.38 | 0.38 | 84 | 1019.7 |
| 20260502053719 | 54 | 154 | 3.5 | 6.1 | 0.00 | 0.38 | 0.38 | 84 | 1019.7 |
| 20260502052718 | 55 | 200 | 5.2 | 9.6 | 0.00 | 0.38 | 0.38 | 84 | 1019.6 |
| 20260502051708 | 55 | 198 | 3.5 | 6.1 | 0.00 | 0.38 | 0.38 | 81 | 1019.3 |
| 20260502050706 | 55 | 103 | 3.5 | 6.1 | 0.00 | 0.38 | 0.38 | 74 | 1019.3 |
| 20260502045704 | 55 | 26 | 4.3 | 7.8 | 0.00 | 0.38 | 0.38 | 72 | 1019.2 |
| 20260502044722 | 54 | 105 | 3.5 | 6.1 | 0.00 | 0.38 | 0.38 | 73 | 1018.9 |
| 20260502043719 | 54 | 140 | 2.6 | 6.1 | 0.00 | 0.38 | 0.38 | 75 | 1018.7 |
| 20260502042717 | 54 | 38 | 0.0 | 3.5 | 0.00 | 0.38 | 0.38 | 79 | 1018.8 |
| 20260502040709 | 55 | 87 | 0.0 | 1.7 | 0.00 | 0.38 | 0.38 | 85 | 1018.8 |
| 20260502034719 | 55 | 261 | 0.0 | 0.0 | 0.00 | 0.38 | 0.38 | 85 | 1018.5 |
| 20260502033705 | 55 | 325 | 0.0 | 0.9 | 0.00 | 0.38 | 0.38 | 85 | 1018.3 |
| 20260502032711 | 55 | 320 | 0.0 | 2.6 | 0.00 | 0.38 | 0.38 | 87 | 1018.0 |
| 20260502031708 | 55 | 328 | 0.0 | 1.7 | 0.01 | 0.38 | 0.38 | 87 | 1018.3 |
| 20260502030703 | 55 | 328 | 0.9 | 3.5 | 0.01 | 0.38 | 0.38 | 87 | 1018.2 |
| 20260502025703 | 55 | 291 | 0.9 | 2.6 | 0.01 | 0.38 | 0.38 | 87 | 1017.9 |
| 20260502024711 | 55 | 211 | 0.0 | 2.6 | 0.01 | 0.38 | 0.38 | 86 | 1017.7 |
| 20260502023706 | 55 | 82 | 0.0 | 0.9 | 0.03 | 0.38 | 0.38 | 85 | 1017.3 |
| 20260502022721 | 55 | 80 | 0.0 | 2.6 | 0.05 | 0.38 | 0.38 | 85 | 1017.1 |
| 20260502021715 | 55 | 130 | 1.7 | 5.2 | 0.06 | 0.37 | 0.37 | 84 | 1016.9 |